Weather History for Kearney, NE

Change the Weather History Date:

Monday, September 24, 2012

  Actual Average Record
Temperature  
Mean Temperature 57 °F 60 °F  
Max Temperature 73 °F 74 °F 92 °F (1981)
Min Temperature 41 °F 46 °F 25 °F (1926)
Degree Days  
Heating Degree Days 8 7  
Month to date heating degree days 85  
Since 1 July heating degree days 102  
Cooling Degree Days 0 1  
Month to date cooling degree days 79  
Year to date cooling degree days 857  
Growing Degree Days 8 (Base 50)    
Moisture  
Dew Point 42 °F    
Average Humidity 57    
Maximum Humidity 72    
Minimum Humidity 41    
Precipitation  
Precipitation 0.00 in - 1.48 in (1997)
Sea Level Pressure  
Sea Level Pressure 30.00 in    
Wind  
Wind Speed 5 mph (SE)    
Max Wind Speed 10 mph    
Max Gust Speed -    
Visibility 10 miles    
Events      
T = Trace of Precipitation, MM = Missing Value Source: NWS Daily Summary

Daily Weather History Graph

Daily Weather History Graph

Search for Another Location

Airport:

Trip Planner

Search our weather history database for the weather conditions in past years. The results will help you decide how hot, cold, wet, or windy it might be!

Date:

Astronomy

Sep. 24, 2012 Rise Set
Actual Time 7:26 AM CDT 7:28 PM CDT
Civil Twilight 6:58 AM CDT 7:56 PM CDT
Nautical Twilight 6:26 AM CDT 8:28 PM CDT
Astronomical Twilight 5:54 AM CDT 9:00 PM CDT
Moon 4:17 PM CDT (9/24) 1:42 AM CDT (9/24)
Length of Visible Light 12h 57m
Length of Day
12h 02m
Waxing Gibbous, 71% of the Moon is Illuminated
Sep 24
Waxing Gibbous
Sep 29
Full
Oct 8
Last Quarter
Oct 15
New
Oct 21
First Quarter

Hourly Weather History & Observations

Time (CDT) Temp. Windchill Dew Point Humidity Pressure Visibility Wind Dir Wind Speed Gust Speed Precip Events Conditions
12:15 AM 51.8 °F - 33.8 °F 50% 30.16 in 10.0 mi SSE 6.9 mph - N/A   Clear
12:35 AM 51.8 °F - 33.8 °F 50% 30.16 in 10.0 mi SSE 4.6 mph - N/A   Clear
12:55 AM 51.8 °F - 33.8 °F 50% 30.16 in 10.0 mi SSE 5.8 mph - N/A   Clear
1:15 AM 50.0 °F - 33.8 °F 54% 30.15 in 10.0 mi SSE 5.8 mph - N/A   Clear
1:35 AM 48.2 °F - 33.8 °F 58% 30.14 in 10.0 mi SSE 5.8 mph - N/A   Clear
1:55 AM 48.2 °F - 33.8 °F 58% 30.15 in 10.0 mi South 6.9 mph - N/A   Clear
2:15 AM 50.0 °F - 33.8 °F 54% 30.15 in 10.0 mi South 5.8 mph - N/A   Clear
2:35 AM 50.0 °F - 33.8 °F 54% 30.14 in 10.0 mi South 5.8 mph - N/A   Clear
2:55 AM 50.0 °F - 33.8 °F 54% 30.14 in 10.0 mi South 5.8 mph - N/A   Clear
3:15 AM 48.2 °F - 33.8 °F 58% 30.13 in 10.0 mi SSE 6.9 mph - N/A   Clear
3:35 AM 46.4 °F 43.5 °F 33.8 °F 62% 30.13 in 10.0 mi South 5.8 mph - N/A   Clear
3:55 AM 46.4 °F 43.5 °F 33.8 °F 62% 30.12 in 10.0 mi SSE 5.8 mph - N/A   Clear
4:15 AM 46.4 °F 45.2 °F 33.8 °F 62% 30.12 in 10.0 mi SSE 3.5 mph - N/A   Clear
4:35 AM 46.4 °F 44.3 °F 33.8 °F 62% 30.11 in 10.0 mi SSE 4.6 mph - N/A   Clear
4:55 AM 44.6 °F 40.2 °F 33.8 °F 66% 30.10 in 10.0 mi SE 8.1 mph - N/A   Clear
5:15 AM 44.6 °F 43.1 °F 33.8 °F 66% 30.10 in 10.0 mi SE 3.5 mph - N/A   Clear
5:35 AM 44.6 °F 41.4 °F 33.8 °F 66% 30.09 in 10.0 mi South 5.8 mph - N/A   Clear
5:55 AM 44.6 °F 42.2 °F 33.8 °F 66% 30.09 in 10.0 mi South 4.6 mph - N/A   Clear
6:15 AM 44.6 °F 42.2 °F 33.8 °F 66% 30.09 in 10.0 mi South 4.6 mph - N/A   Clear
6:35 AM 44.6 °F - 33.8 °F 66% 30.08 in 10.0 mi Calm Calm - N/A   Clear
6:55 AM 44.6 °F - 33.8 °F 66% 30.08 in 10.0 mi Calm Calm - N/A   Clear
7:15 AM 42.8 °F - 33.8 °F 70% 30.08 in 10.0 mi Calm Calm - N/A   Clear
7:35 AM 42.8 °F - 33.8 °F 70% 30.07 in 10.0 mi Calm Calm - N/A   Clear
7:55 AM 42.8 °F 40.1 °F 33.8 °F 70% 30.06 in 10.0 mi SE 4.6 mph - N/A   Clear
8:15 AM 44.6 °F - 35.6 °F 71% 30.07 in 10.0 mi Calm Calm - N/A   Clear
8:35 AM 46.4 °F 44.3 °F 35.6 °F 66% 30.05 in 10.0 mi SSE 4.6 mph - N/A   Clear
8:55 AM 48.2 °F - 37.4 °F 66% 30.04 in 10.0 mi South 4.6 mph - N/A   Clear
9:15 AM 51.8 °F - 37.4 °F 58% 30.04 in 10.0 mi South 5.8 mph - N/A   Clear
9:35 AM 55.4 °F - 37.4 °F 51% 30.04 in 10.0 mi South 9.2 mph - N/A   Clear
9:55 AM 57.2 °F - 37.4 °F 48% 30.03 in 10.0 mi South 10.4 mph - N/A   Clear
10:15 AM 60.8 °F - 39.2 °F 45% 30.03 in 10.0 mi South 5.8 mph - N/A   Clear
10:35 AM 60.8 °F - 39.2 °F 45% 30.02 in 10.0 mi SSW 6.9 mph - N/A   Clear
10:55 AM 64.4 °F - 42.8 °F 45% 30.01 in 10.0 mi SSW 9.2 mph - N/A   Clear
11:15 AM 66.2 °F - 44.6 °F 46% 30.00 in 10.0 mi SSW 12.7 mph - N/A   Clear
11:35 AM 66.2 °F - 44.6 °F 46% 30.00 in 10.0 mi South 10.4 mph - N/A   Clear
11:55 AM 66.2 °F - 46.4 °F 49% 30.00 in 10.0 mi SSW 9.2 mph - N/A   Clear
12:15 PM 66.2 °F - 44.6 °F 46% 29.99 in 10.0 mi SSW 6.9 mph - N/A   Clear
12:35 PM 66.2 °F - 44.6 °F 46% 29.99 in 10.0 mi SW 4.6 mph - N/A   Clear
12:55 PM 68.0 °F - 46.4 °F 46% 29.98 in 10.0 mi Calm Calm - N/A   Clear
1:15 PM 69.8 °F - 46.4 °F 43% 29.98 in 10.0 mi Calm Calm - N/A   Clear
1:35 PM 69.8 °F - 46.4 °F 43% 29.97 in 10.0 mi Calm Calm - N/A   Clear
1:55 PM 71.6 °F - 48.2 °F 43% 29.95 in 10.0 mi Calm Calm - N/A   Clear
2:15 PM 71.6 °F - 48.2 °F 43% 29.94 in 10.0 mi East 5.8 mph - N/A   Clear
2:35 PM 71.6 °F - 48.2 °F 43% 29.93 in 10.0 mi SE 4.6 mph - N/A   Clear
2:55 PM 71.6 °F - 48.2 °F 43% 29.93 in 10.0 mi NE 5.8 mph - N/A   Clear
3:15 PM 71.6 °F - 48.2 °F 43% 29.92 in 10.0 mi East 3.5 mph - N/A   Clear
3:35 PM 71.6 °F - 48.2 °F 43% 29.91 in 10.0 mi East 5.8 mph - N/A   Clear
3:55 PM 73.4 °F - 50.0 °F 44% 29.90 in 10.0 mi East 8.1 mph - N/A   Clear
4:15 PM 73.4 °F - 50.0 °F 44% 29.85 in 10.0 mi East 15.0 mph - N/A   Clear
4:35 PM 73.4 °F - 48.2 °F 41% 29.89 in 10.0 mi ENE 3.5 mph - N/A   Clear
4:55 PM 73.4 °F - 48.2 °F 41% 29.89 in 10.0 mi NE 4.6 mph - N/A   Clear
5:15 PM 73.4 °F - 48.2 °F 41% 29.89 in 10.0 mi East 5.8 mph - N/A   Clear
5:35 PM 73.4 °F - 48.2 °F 41% 29.88 in 10.0 mi ENE 5.8 mph - N/A   Clear
5:55 PM 73.4 °F - 50.0 °F 44% 29.87 in 10.0 mi ENE 9.2 mph - N/A   Clear
6:15 PM 71.6 °F - 50.0 °F 46% 29.88 in 10.0 mi East 4.6 mph - N/A   Clear
6:35 PM 71.6 °F - 48.2 °F 43% 29.88 in 10.0 mi East 5.8 mph - N/A   Clear
6:55 PM 69.8 °F - 50.0 °F 49% 29.88 in 10.0 mi East 8.1 mph - N/A   Clear
7:15 PM 68.0 °F - 50.0 °F 52% 29.88 in 9.0 mi Calm Calm - N/A   Clear
7:35 PM 66.2 °F - 50.0 °F 56% 29.88 in 10.0 mi Calm Calm - N/A   Clear
7:55 PM 66.2 °F - 50.0 °F 56% 29.87 in 10.0 mi North 6.9 mph - N/A   Clear
8:15 PM 64.4 °F - 50.0 °F 59% 29.88 in 9.0 mi North 3.5 mph - N/A   Clear
8:35 PM 64.4 °F - 50.0 °F 59% 29.88 in 8.0 mi Calm Calm - N/A   Clear
8:55 PM 60.8 °F - 50.0 °F 68% 29.88 in 10.0 mi Calm Calm - N/A   Clear
9:15 PM 60.8 °F - 50.0 °F 68% 29.88 in 8.0 mi ESE 4.6 mph - N/A   Clear
9:35 PM 60.8 °F - 51.8 °F 72% 29.89 in 8.0 mi Calm Calm - N/A   Clear
9:55 PM 62.6 °F - 50.0 °F 63% 29.89 in 8.0 mi Calm Calm - N/A   Clear
10:15 PM 60.8 °F - 50.0 °F 68% 29.89 in 9.0 mi Calm Calm - N/A   Clear
10:35 PM 60.8 °F - 50.0 °F 68% 29.89 in 10.0 mi NNW 3.5 mph - N/A   Clear
10:55 PM 60.8 °F - 50.0 °F 68% 29.90 in 10.0 mi NNW 5.8 mph - N/A   Clear
11:15 PM 57.2 °F - 48.2 °F 72% 29.89 in 10.0 mi NNW 4.6 mph - N/A   Clear
11:35 PM 57.2 °F - 48.2 °F 72% 29.89 in 10.0 mi NNW 6.9 mph - N/A   Clear
11:55 PM 57.2 °F - 48.2 °F 72% 29.89 in 10.0 mi NNW 6.9 mph - N/A   Clear